Regional Weather Roundup
Issued by NWS Columbia, SC

Home | Current Version | Previous Version | Text Only | Print | Product List | Glossary On
Versions: 1 2 3 4 5 6 7 8 9 10 11 12 13 14 15 16 17 18 19 20 21 22 23 24 25 26 27
000
ASUS42 KCAE 281910
RWRCAE
REGIONAL WEATHER ROUNDUP
NATIONAL WEATHER SERVICE COLUMBIA SC
300 PM EDT SUN MAY 28 2017

NOTE: "FAIR" INDICATES FEW OR NO CLOUDS BELOW 12,000 FEET WITH NO
SIGNIFICANT WEATHER AND/OR OBSTRUCTIONS TO VISIBILITY.

NOT ALL STATIONS ARE QUALITY CONTROLLED BY THE NATIONAL
WEATHER SERVICE. USE DATA WITH CAUTION...ESPECIALLY
DEWPOINT OBSERVATIONS.

SCZ001>056-GAZ040-063>065-077-282000-
...UPSTATE SOUTH CAROLINA...

CITY           SKY/WX    TMP DP  RH WIND       PRES   REMARKS
ANDERSON       CLOUDY    81  68  64 SW15G23   29.88F
SPARTANBURG    PTSUNNY   81  64  57 SW10G18   29.86F
CLEMSON        CLOUDY    80  67  64 SW9G17    29.90S
GREENVILLE     CLOUDY    82  66  58 SW15G21   29.88F
GREENWOOD      PTSUNNY   85  69  58 SW12      29.90F
GREER          CLOUDY    79  67  66 SW12      29.86F
ROCK HILL      SUNNY     84  65  52 W13G21    29.86F
CHESTER        CLEAR     82  63  51 SW6       29.87F
LAURENS        PTCLDY    82  68  61 W12G20    29.89S


...CENTRAL SOUTH CAROLINA...

CITY           SKY/WX    TMP DP  RH WIND       PRES   REMARKS
COLUMBIA APT   PTSUNNY   92  67  43 SW18G28   29.85F HX  95
COLUMBIA OWENS MOSUNNY   93  65  39 W20G26    29.86F HX  95
MCENTIRE ANGB  SUNNY     90  68  48 SW17G26   29.86F
ORANGEBURG     PTSUNNY   90  69  50 W20G28    29.89F
SUMTER SHAW    MOSUNNY   90  68  48 W15       29.83F
NEWBERRY       PTCLDY    86  70  58 W17G23    29.90F
AIKEN          MOCLDY    86  68  54 SW18      29.92F
BARNWELL       FAIR      88  73  62 SW13G22   29.90F HX  96
MANNING        FAIR      88  73  62 SW18G26   29.88F HX  96
CAMDEN         FAIR      90  66  45 SW13G25   29.86F
LANCASTER      CLOUDY    84  66  54 SW10G20   29.87F
WINNSBORO      PTCLDY    86  68  54 SW12      29.86F


...EASTERN AND COASTAL SOUTH CAROLINA...

CITY           SKY/WX    TMP DP  RH WIND       PRES   REMARKS
MYRTLE BEACH   PTSUNNY   86  73  66 S12       29.87F
N MYRTLE BCH   CLOUDY    82  73  74 SW20      29.86S
CONWAY         FAIR      88  68  51 W7        29.86F
MARION         FAIR      88  63  42 W18G25    29.86F
HARTSVILLE     FAIR      88  64  45 W10G17    29.86F
FLORENCE       MOSUNNY   90  65  43 SW14G28   29.85F
DARLINGTON     SUNNY     91  65  41 SW16      29.85F
CHARLESTON APT PTSUNNY   89  70  53 W17       29.89F
MOUNT PLEASANT FAIR      90  73  58 SW10G16   29.89F HX  98
WALTERBORO     PTCLDY    88  72  58 W17       29.92S
BEAUFORT       PTSUNNY   88  73  61 W13       29.92F HX  95


...EASTERN GEORGIA...

CITY           SKY/WX    TMP DP  RH WIND       PRES   REMARKS
AUGUSTA BUSH F PTSUNNY   90  71  53 SW15G26   29.89F HX  96
AUGUSTA DANIEL MOSUNNY   89  67  47 SW10G21   29.89F
THOMSON        MOSUNNY   87  71  58 W14G23    29.94F
WASHINGTON       N/A     88  73  62 W13G18    29.90F HX  96
CLAXTON        MOCLDY    88  76  67 SW8G17    29.96S HX  98
SYLVANIA       CLOUDY    85  74  69 W9        29.95F
STATESBORO     PTSUNNY   89  72  56 W13G21    29.95S HX  96
SAVANNAH       CLOUDY    96  68  39 W15       29.92F HX 101


...SOUTHERN NORTH CAROLINA...

CITY           SKY/WX    TMP DP  RH WIND       PRES   REMARKS
CHARLOTTE      PTSUNNY   83  64  52 SW9       29.85F
MONROE         LGT RAIN  85  63  47 W15       29.85F
WADESBORO      PTCLDY    86  63  45 SW13G20   29.85S
ROCKINGHAM     PTCLDY    87  65  49 W16G25    29.85F
RUTHERFORDTON  PTSUNNY   81  67  63 S9        29.86F
ASHEVILLE      CLOUDY    79  60  52 SW8       29.91F

$$




USA.gov is the U.S. government's official web portal to all federal, state and local government web resources and services.